Date,TemperatureHighF,TemperatureAvgF,TemperatureLowF,DewpointHighF,DewpointAvgF,DewpointLowF,HumidityHigh,HumidityAvg,HumidityLow,PressureMaxIn,PressureMinIn,WindSpeedMaxMPH,WindSpeedAvgMPH,GustSpeedMaxMPH,PrecipitationSumIn
2013-2-1,67.8,50.0,36.5,49.8,43.0,34.0,96,78,48,30.22,30.11,7,1,8,0.01
2013-2-2,63.9,49.5,41.7,51.8,45.0,38.0,95,85,62,30.29,30.21,7,1,8,0.00
2013-2-3,62.1,49.9,41.5,47.8,44.2,38.0,95,81,57,30.25,30.11,8,1,9,0.00
2013-2-4,66.4,47.9,36.1,51.6,43.1,33.0,97,84,50,30.19,30.05,8,1,8,0.01
2013-2-5,56.1,49.3,42.1,48.6,44.9,39.0,95,84,71,30.15,30.05,13,2,13,0.00
2013-2-6,60.6,46.7,35.2,46.6,41.1,32.0,96,82,54,30.20,30.10,10,1,12,0.01
2013-2-7,55.9,44.6,35.6,46.9,39.5,33.0,96,83,54,30.19,29.99,15,2,16,0.03
2013-2-8,53.8,43.5,34.5,42.6,38.6,30.0,96,83,55,30.02,29.93,15,1,15,0.01
2013-2-9,57.6,44.2,32.5,36.1,31.3,27.0,93,63,31,30.11,29.98,11,1,11,0.00
2013-2-10,60.4,44.3,30.2,39.2,33.9,25.0,91,68,39,30.13,30.01,11,1,11,0.00
2013-2-11,62.4,46.3,32.5,39.0,32.7,23.0,93,63,24,30.24,30.07,16,2,16,0.00
2013-2-12,62.8,46.3,33.1,42.4,36.3,28.0,89,69,41,30.36,30.23,8,1,8,0.00
2013-2-13,66.2,48.5,34.2,46.6,38.2,30.0,93,70,32,30.35,30.21,11,1,11,0.00
2013-2-14,68.0,52.3,37.0,45.7,40.3,33.0,93,66,36,30.25,30.15,21,3,21,0.00
2013-2-15,72.3,53.8,39.2,50.4,43.3,34.0,90,69,37,30.27,30.20,7,1,8,0.00
2013-2-16,70.0,52.6,39.2,51.3,43.5,35.0,94,73,46,30.25,30.05,7,1,9,0.00
2013-2-17,66.4,50.9,40.6,48.9,42.8,35.0,96,76,38,30.06,29.94,8,1,8,0.00
2013-2-18,52.2,45.9,38.1,44.8,40.3,34.0,96,81,65,30.04,29.96,16,3,16,0.00
2013-2-19,48.0,44.1,38.3,43.9,39.2,33.0,91,82,69,29.97,29.73,15,2,15,0.49
2013-2-20,59.2,46.0,35.1,43.2,37.1,30.0,91,73,38,30.07,29.83,14,2,14,0.00
2013-2-21,60.6,46.0,33.4,42.1,35.7,29.7,96,70,32,30.18,30.05,16,2,19,0.01
2013-2-22,64.0,48.0,33.8,45.7,38.7,30.0,93,73,37,30.25,30.17,14,2,14,0.00
2013-2-23,59.4,51.2,45.7,46.8,39.6,30.0,92,66,34,30.25,30.13,19,3,19,0.01
2013-2-24,63.1,51.0,39.2,35.2,28.2,19.0,71,42,18,30.25,30.15,16,3,19,0.00
2013-2-25,63.5,47.9,32.3,45.5,37.5,27.0,88,68,42,30.28,30.15,14,2,16,0.00
2013-2-26,67.6,50.7,34.0,39.7,31.8,18.0,94,56,16,30.22,30.11,13,2,13,0.00
2013-2-27,71.2,51.6,34.5,43.2,36.4,28.0,87,60,24,30.37,30.21,8,1,10,0.00
2013-2-28,69.3,54.0,40.8,54.1,46.7,37.0,93,77,54,30.44,30.36,12,1,14,0.00